Home > Weather > Dammam > Past weeks

Flag for Saudi Arabia Past Weather in Dammam, Saudi Arabia — Yesterday and Last 2 Weeks

Now
104 °F

Sunny.


Feels Like: 105 °F
Forecast: 78 / 104 °F
Wind: 15 mph from Northeast

Location: Dhahran

Current Time: May 28, 2016 at 4:57:22 PM

Latest Report: May 28, 2016 at 4:00 PM


Visibility: 10 mi

Pressure: 29.56 "Hg

Humidity: 24%

Dew Point: 61 °F

Location of DammamLocation

Past Weather in Dammam — Graph

°F

Dammam Temperature Yesterday

Maximum temperature yesterday: 104 °F (at 1:00 PM)
Minimum temperature yesterday: 75 °F (at 3:00 AM)
Average temperature yesterday: 89 °F

High & Low Weather Summary for the Past Weeks

 TemperatureHumidityPressure
High111 °F (May 19, 1:00 PM)79% (May 17, 5:00 AM)30.01 "Hg (May 17, 5:00 AM)
Low73 °F (May 26, 4:00 AM)5% (May 24, 12:00 PM)29.50 "Hg (May 19, 3:00 PM)
Average91 °F26%29.64 "Hg
* Reported May 13 3:00 PM — May 28 3:00 PM, Dammam, Weather by CustomWeather, © 2016

Note: Actual official high and low records may vary slightly from our data, if they occured in-between our weather recording intervals... More about our weather records

Advertising

Dammam Weather History for the Previous 24 Hours

Scroll right to see more
 ConditionsComfort  
Time TempWeatherWind HumidityBarometerVisibility
3:00 PM
Sat, May 28
108 °FSunny.13 mph13%29.56 "Hg10 mi
2:00 PM109 °FSunny.13 mph8%29.59 "Hg10 mi
1:00 PM109 °FSunny.9 mph8%29.59 "Hg10 mi
12:00 PM109 °FSunny.6 mph8%29.62 "Hg10 mi
11:00 AM106 °FSunny.8 mph12%29.65 "Hg10 mi
10:00 AM102 °FSunny.9 mph13%29.65 "Hg10 mi
9:00 AM100 °FSunny.6 mph10%29.65 "Hg10 mi
8:00 AM95 °FSunny.5 mph19%29.68 "Hg10 mi
7:00 AM90 °FSunny.5 mph24%29.65 "Hg10 mi
6:00 AM86 °FSunny.3 mph25%29.65 "Hg10 mi
5:00 AM81 °FSunny.5 mph48%29.62 "Hg10 mi
3:00 AM81 °FClear.3 mph48%29.62 "Hg10 mi
2:00 AM84 °FClear.13 mph29%29.62 "Hg10 mi
12:00 AM86 °FClear.2 mph33%29.62 "Hg10 mi
11:00 PM
Fri, May 27
86 °FClear.3 mph29%29.65 "Hg10 mi
10:00 PM88 °FPassing clouds.3 mph31%29.65 "HgN/A
9:00 PM88 °FClear.6 mph33%29.68 "Hg10 mi
8:00 PM90 °FPassing clouds.9 mph26%29.65 "HgN/A
7:00 PM93 °FClear.6 mph24%29.65 "Hg10 mi
6:00 PM97 °FSunny.10 mph12%29.65 "Hg10 mi
5:00 PM100 °FSunny.13 mph10%29.65 "Hg10 mi
4:00 PM102 °FSunny.16 mph9%29.65 "Hg10 mi
Weather by CustomWeather, © 2016

See weather overviewHow to use our weather pages